User: anonymous   Login
Location: Mentone
(34.5413°N, 85.5351°W)
Time: 01:52:11
(UTC-05:00)
Language:

Cosmos 2026 Rocket - Orbit

View from above orbital plane
View from above orbital plane
View from above satellite
View from above satellite

Ground track
Ground track

The orbit data is extracted from the following two-line orbital elements,

1 20046U 89042B   16150.22129006  .00000054  00000-0  38099-4 0  9992
2 20046  82.9391 229.3221 0043333  66.3304 350.3459 13.78066768356370
Epoch (UTC): 29 May 2016 05:18:39
Eccentricity: 0.0043333
inclination: 82.9391°
perigee height: 939 km
apogee height: 1002 km
right ascension of ascending node: 229.3221°
argument of perigee: 66.3304°
revolutions per day: 13.78066768
mean anomaly at epoch: 350.3459°
orbit number at epoch: 35637

The dashed part of the orbit path shows where the satellite is in the earth's shadow,  

DLR